Location: Unspecified
(0.0000°N, 0.0000°E)
Time: 14:56:01
(UTC+00:00)

BEESAT - Visible Passes

Search period start: 09 July 2020 00:00
Search period end: 19 July 2020 00:00
Orbit: 699 x 709 km, 98.6° (Epoch: 08 July)

Date Brightness Start Highest point End Pass type
(mag) Time Alt. Az. Time Alt. Az. Time Alt. Az.
10 Jul ? 05:04:17 10° SE 05:07:56 22° ENE 05:11:33 10° NNE visible
12 Jul ? 04:54:09 10° ESE 04:56:58 16° ENE 04:59:46 10° NE visible
12 Jul ? 18:53:33 10° NW 18:55:57 14° WNW 18:58:23 10° WSW visible
13 Jul ? 05:35:33 10° SSE 05:40:13 58° ENE 05:44:52 10° N visible
14 Jul ? 04:44:52 10° E 04:46:00 11° ENE 04:47:09 10° ENE visible
14 Jul ? 18:41:36 10° NNW 18:44:59 20° WNW 18:48:25 10° WSW visible
15 Jul ? 05:24:48 10° SSE 05:29:15 40° ENE 05:33:40 10° N visible
16 Jul ? 18:30:02 10° NNW 18:34:02 27° WNW 18:38:04 10° SW visible
17 Jul ? 05:14:12 10° SE 05:18:17 29° ENE 05:22:19 10° NNE visible
